Temp
-23 -23 -23 -21 -19 -19 -20 -20 -18 -19 -21 -20 -16 -14 -14 -13 -15 -15 -15 -14 -14 -14 -14 -14 -14 -13 -14 -14 -14 -14 -14 -15 -15 -16 -16 -16 -16 -16 -16 -16 -15 -16 -17 -15
-22 -23 -24 -23 -21 -20 -20 -20 -19 -20 -21 -21 -15 -14 -14 -14 -16 -16 -15 -15 -15 -15 -15 -14 -14 -14 -14 -14 -14 -14 -15 -14 -15 -15 -16 -16 -16 -16 -16 -16 -16 -16 -16 -15
-22 -23 -23 -24 -23 -22 -21 -20 -20 -21 -21 -19 -17 -15 -14 -14 -16 -16 -16 -16 -15 -15 -15 -14 -14 -15 -14 -14 -14 -15 -15 -15 -15 -15 -16 -17 -17 -17 -16 -16 -16 -16 -16 -16
-23 -23 -23 -23 -24 -22 -22 -21 -20 -20 -19 -18 -15 -15 -14 -15 -16 -16 -16 -16 -15 -16 -15 -15 -15 -15 -15 -15 -15 -15 -15 -15 -16 -16 -17 -17 -17 -17 -17 -16 -16 -16 -16 -16
-23 -23 -23 -23 -24 -24 -23 -23 -20 -20 -19 -18 -17 -15 -14 -14 -17 -17 -16 -16 -17 -17 -16 -16 -16 -16 -16 -15 -16 -16 -16 -16 -16 -17 -17 -17 -17 -17 -16 -16 -16 -15 -16 -15
-23 -23 -23 -23 -24 -25 -23 -23 -21 -21 -19 -19 -18 -15 -14 -14 -17 -16 -17 -17 -18 -17 -17 -17 -17 -17 -16 -15 -14 -16 -17 -17 -17 -17 -17 -17 -17 -16 -16 -16 -16 -16 -15 -16
-23 -23 -23 -23 -24 -24 -23 -22 -22 -21 -20 -20 -17 -17 -16 -15 -17 -17 -18 -18 -19 -18 -18 -18 -18 -17 -16 -16 -16 -16 -16 -17 -17 -17 -17 -16 -15 -16 -16 -16 -16 -15 -15 -15
-23 -23 -24 -23 -23 -24 -24 -23 -23 -22 -20 -19 -18 -17 -16 -17 -18 -18 -19 -19 -18 -19 -17 -18 -18 -17 -16 -16 -17 -16 -16 -17 -17 -17 -16 -16 -15 -15 -16 -16 -15 -15 -15 -16
-23 -23 -24 -23 -24 -24 -25 -24 -22 -22 -21 -19 -19 -18 -17 -16 -18 -19 -18 -19 -19 -19 -19 -17 -17 -17 -17 -17 -18 -17 -16 -17 -18 -16 -16 -15 -16 -16 -16 -16 -15 -16 -16 -16
-23 -24 -24 -24 -24 -24 -24 -24 -23 -23 -22 -20 -19 -18 -17 -17 -18 -18 -19 -19 -19 -20 -19 -18 -17 -17 -17 -17 -17 -16 -16 -17 -16 -17 -17 -16 -16 -17 -16 -16 -16 -16 -16 -16
-24 -24 -24 -24 -24 -25 -25 -25 -24 -23 -22 -20 -19 -19 -18 -18 -18 -19 -19 -20 -19 -19 -18 -18 -18 -17 -18 -17 -17 -17 -17 -17 -17 -17 -16 -16 -17 -17 -17 -16 -16 -16 -16 -16
-24 -24 -24 -24 -24 -25 -26 -26 -27 -24 -22 -20 -20 -19 -18 -19 -19 -19 -19 -19 -20 -19 -18 -18 -17 -17 -17 -17 -17 -17 -17 -16 -17 -17 -16 -17 -17 -17 -17 -17 -16 -16 -16 -16
-25 -25 -24 -24 -25 -25 -26 -27 -27 -23 -22 -21 -20 -20 -20 -19 -19 -19 -19 -19 -19 -19 -19 -18 -18 -17 -17 -17 -17 -17 -17 -17 -17 -17 -16 -17 -17 -17 -17 -17 -16 -16 -16 -17
-25 -25 -24 -24 -24 -25 -27 -27 -27 -23 -22 -22 -21 -21 -21 -20 -20 -19 -19 -19 -19 -19 -19 -18 -18 -18 -18 -18 -17 -17 -17 -18 -17 -17 -17 -17 -18 -18 -18 -17 -17 -17 -17 -17
-25 -25 -24 -24 -24 -27 -28 -27 -25 -23 -23 -23 -22 -21 -21 -21 -20 -19 -19 -19 -19 -19 -19 -18 -18 -18 -18 -18 -18 -17 -17 -17 -18 -17 -17 -17 -17 -17 -18 -18 -17 -17 -17 -17
-25 -24 -25 -24 -25 -28 -27 -27 -26 -24 -23 -24 -23 -22 -21 -21 -20 -19 -19 -19 -19 -19 -19 -19 -18 -18 -17 -17 -17 -17 -17 -18 -17 -17 -18 -17 -17 -18 -18 -18 -18 -18 -18 -18
-25 -25 -25 -25 -27 -28 -27 -27 -26 -24 -23 -23 -22 -21 -21 -21 -20 -19 -19 -18 -18 -19 -19 -19 -18 -18 -17 -17 -16 -16 -17 -18 -18 -18 -17 -17 -18 -19 -19 -18 -18 -18 -18 -18
-25 -25 -28 -28 -28 -28 -28 -27 -25 -24 -23 -22 -21 -21 -21 -20 -20 -19 -18 -18 -18 -18 -18 -19 -18 -17 -17 -16 -16 -17 -17 -18 -18 -18 -18 -18 -18 -18 -18 -18 -19 -19 -19 -18
-26 -28 -27 -27 -28 -28 -27 -25 -24 -24 -23 -21 -21 -20 -20 -20 -19 -18 -18 -18 -18 -18 -18 -18 -17 -17 -17 -16 -17 -17 -18 -18 -18 -18 -18 -18 -18 -18 -18 -19 -19 -19 -19 -19
-28 -28 -27 -28 -28 -27 -26 -26 -25 -24 -23 -21 -20 -20 -20 -20 -19 -18 -18 -17 -18 -18 -18 -18 -17 -17 -17 -17 -17 -18 -18 -18 -18 -18 -18 -18 -18 -18 -19 -19 -19 -19 -19 -19
-28 -28 -27 -28 -27 -26 -26 -25 -24 -23 -21 -20 -21 -20 -20 -20 -19 -19 -18 -18 -18 -18 -18 -18 -17 -17 -18 -18 -18 -18 -18 -17 -17 -18 -18 -19 -19 -19 -19 -19 -19 -19 -19 -20
-28 -28 -26 -26 -25 -25 -24 -23 -22 -20 -20 -20 -20 -20 -20 -19 -19 -19 -18 -18 -18 -18 -17 -18 -18 -17 -18 -18 -18 -18 -18 -18 -18 -19 -19 -18 -18 -18 -18 -18 -19 -19 -19 -20
-25 -26 -25 -24 -23 -22 -22 -21 -20 -20 -19 -19 -19 -19 -19 -19 -18 -18 -18 -18 -18 -18 -18 -17 -18 -19 -19 -19 -19 -19 -19 -19 -19 -18 -18 -18 -18 -18 -20 -19 -19 -19 -19 -20
-23 -23 -22 -21 -21 -21 -20 -20 -21 -20 -20 -21 -20 -20 -19 -19 -19 -19 -19 -18 -18 -18 -18 -18 -18 -18 -19 -19 -19 -19 -19 -19 -19 -19 -19 -19 -19 -19 -19 -19 -19 -20 -20 -21
-22 -21 -21 -20 -20 -21 -21 -21 -20 -19 -19 -19 -19 -19 -19 -19 -19 -19 -18 -18 -18 -18 -18 -18 -19 -19 -19 -19 -19 -20 -20 -20 -20 -20 -20 -20 -20 -20 -20 -20 -21 -21 -21 -21
-20 -20 -20 -20 -20 -20 -20 -20 -19 -19 -19 -19 -19 -19 -19 -19 -18 -18 -18 -19 -19 -19 -19 -19 -19 -19 -20 -20 -20 -20 -20 -20 -20 -20 -20 -20 -20 -21 -21 -21 -21 -21 -21 -22
-20 -20 -20 -20 -20 -20 -20 -20 -20 -19 -19 -19 -19 -19 -18 -19 -19 -19 -19 -19 -19 -19 -19 -19 -20 -20 -20 -20 -20 -20 -20 -20 -21 -21 -21 -21 -21 -21 -21 -21 -21 -22 -22 -23
Height
5457 5464 5470 5482 5501 5521 5533 5549 5566 5585 5591 5592 5608 5627 5640 5650 5660 5665 5673 5680 5687 5695 5700 5703 5707 5712 5717 5717 5719 5721 5723 5724 5726 5727 5728 5730 5731 5733 5732 5731 5733 5730 5730 5735
5440 5449 5456 5463 5476 5494 5517 5531 5551 5562 5570 5574 5601 5618 5630 5638 5649 5654 5664 5672 5678 5685 5691 5695 5699 5706 5711 5711 5714 5716 5718 5718 5720 5722 5723 5725 5725 5728 5726 5726 5725 5725 5726 5730
5423 5434 5443 5450 5459 5476 5495 5511 5523 5535 5549 5582 5592 5603 5618 5628 5640 5644 5653 5662 5669 5676 5683 5688 5694 5699 5703 5706 5708 5709 5710 5711 5713 5715 5719 5718 5719 5721 5721 5721 5719 5721 5721 5723
5407 5419 5430 5438 5446 5460 5474 5483 5499 5525 5533 5562 5585 5593 5607 5618 5630 5635 5645 5652 5659 5666 5674 5680 5688 5694 5697 5700 5702 5703 5705 5705 5706 5708 5710 5711 5713 5715 5715 5715 5715 5714 5717 5716
5392 5406 5417 5427 5436 5445 5454 5465 5491 5513 5539 5567 5567 5576 5592 5607 5619 5628 5635 5643 5651 5657 5665 5673 5680 5686 5691 5694 5695 5697 5699 5701 5702 5703 5704 5705 5705 5708 5709 5709 5709 5710 5710 5710
5378 5392 5405 5417 5424 5427 5436 5454 5483 5503 5528 5540 5553 5573 5590 5601 5612 5619 5630 5639 5647 5650 5659 5667 5671 5677 5682 5685 5688 5689 5692 5695 5696 5696 5698 5697 5699 5704 5704 5705 5706 5706 5705 5706
5366 5380 5394 5405 5416 5426 5433 5452 5476 5494 5508 5529 5551 5566 5579 5590 5605 5614 5625 5632 5639 5644 5654 5657 5662 5669 5673 5677 5680 5683 5686 5688 5690 5690 5691 5688 5697 5698 5698 5700 5701 5700 5700 5699
5355 5370 5385 5399 5408 5413 5426 5440 5461 5480 5498 5520 5541 5553 5567 5578 5596 5602 5613 5624 5632 5637 5645 5648 5653 5659 5663 5665 5669 5674 5680 5682 5682 5682 5684 5685 5689 5692 5693 5691 5694 5694 5694 5692
5347 5363 5378 5390 5398 5409 5418 5429 5451 5473 5490 5510 5532 5543 5557 5570 5586 5594 5605 5615 5621 5627 5633 5638 5639 5646 5652 5658 5661 5668 5673 5674 5676 5676 5677 5678 5683 5686 5686 5685 5687 5688 5685 5683
5343 5358 5371 5382 5393 5402 5412 5422 5441 5468 5483 5504 5520 5533 5550 5563 5580 5589 5599 5605 5611 5618 5623 5629 5632 5638 5645 5651 5655 5661 5665 5667 5668 5670 5670 5672 5676 5678 5679 5679 5682 5678 5676 5675
5341 5354 5365 5377 5387 5395 5403 5415 5431 5455 5477 5498 5512 5523 5540 5553 5571 5582 5593 5594 5598 5606 5613 5618 5624 5630 5638 5644 5649 5653 5657 5661 5662 5664 5664 5665 5671 5669 5671 5672 5671 5670 5669 5667
5339 5351 5363 5373 5380 5390 5395 5407 5427 5448 5472 5489 5507 5520 5533 5549 5565 5576 5583 5590 5597 5601 5608 5612 5618 5624 5632 5638 5642 5647 5651 5654 5656 5658 5658 5659 5661 5662 5663 5664 5663 5663 5662 5661
5338 5349 5360 5369 5377 5384 5391 5409 5424 5446 5471 5486 5503 5517 5528 5541 5555 5566 5574 5580 5587 5594 5601 5608 5613 5619 5627 5631 5635 5639 5643 5646 5647 5649 5650 5651 5653 5654 5655 5655 5655 5654 5654 5653
5338 5348 5357 5365 5371 5377 5388 5407 5421 5444 5467 5481 5497 5512 5525 5536 5550 5561 5568 5575 5581 5588 5594 5600 5606 5614 5620 5623 5628 5632 5636 5637 5639 5641 5641 5644 5645 5647 5645 5646 5646 5646 5646 5646
5338 5347 5353 5359 5365 5372 5392 5409 5423 5444 5464 5480 5496 5512 5523 5533 5546 5556 5563 5570 5576 5582 5587 5593 5600 5605 5611 5614 5618 5620 5627 5630 5630 5629 5630 5632 5635 5636 5638 5639 5639 5638 5638 5638
5337 5344 5350 5354 5356 5374 5393 5409 5428 5443 5460 5480 5492 5506 5523 5533 5540 5550 5557 5564 5570 5575 5582 5588 5593 5598 5602 5605 5609 5616 5619 5621 5622 5623 5622 5624 5625 5627 5629 5630 5630 5630 5629 5628
5336 5342 5347 5351 5365 5384 5400 5415 5435 5444 5460 5475 5487 5504 5520 5530 5537 5545 5552 5558 5565 5571 5577 5581 5586 5591 5594 5598 5603 5608 5610 5612 5613 5615 5615 5615 5616 5619 5619 5620 5621 5621 5620 5618
5337 5346 5354 5369 5385 5399 5411 5431 5443 5451 5463 5476 5489 5504 5521 5529 5535 5542 5548 5554 5560 5566 5571 5576 5580 5583 5586 5590 5595 5598 5600 5603 5605 5607 5608 5608 5609 5609 5610 5610 5609 5608 5607 5607
5340 5352 5369 5384 5396 5404 5416 5433 5447 5456 5468 5478 5492 5507 5518 5527 5534 5541 5547 5549 5553 5559 5563 5568 5573 5576 5578 5584 5586 5590 5592 5592 5593 5594 5595 5597 5599 5599 5598 5597 5597 5596 5595 5594
5356 5367 5378 5386 5396 5410 5422 5437 5449 5459 5467 5484 5498 5509 5519 5526 5532 5536 5542 5542 5546 5551 5558 5562 5565 5570 5573 5576 5578 5579 5581 5579 5581 5583 5586 5587 5588 5588 5588 5586 5585 5585 5584 5581
5370 5378 5389 5396 5405 5418 5431 5441 5451 5461 5475 5489 5501 5509 5516 5524 5529 5529 5534 5538 5543 5547 5553 5555 5558 5563 5568 5568 5567 5569 5569 5568 5569 5573 5577 5578 5579 5579 5577 5576 5574 5573 5569 5565
5384 5394 5408 5414 5423 5431 5438 5447 5460 5471 5484 5494 5503 5511 5518 5521 5524 5528 5533 5535 5536 5540 5545 5548 5549 5556 5555 5557 5557 5560 5561 5563 5564 5566 5568 5569 5568 5567 5566 5564 5562 5560 5556 5554
5401 5411 5418 5424 5431 5443 5452 5460 5472 5479 5488 5496 5503 5509 5512 5518 5522 5525 5528 5529 5530 5535 5538 5540 5544 5546 5550 5551 5552 5551 5552 5554 5556 5556 5557 5557 5556 5555 5554 5553 5550 5548 5545 5542
5416 5429 5434 5440 5447 5456 5465 5473 5479 5485 5492 5497 5501 5506 5510 5515 5518 5521 5524 5526 5527 5529 5532 5534 5537 5540 5541 5541 5542 5543 5544 5544 5545 5545 5546 5545 5546 5544 5542 5541 5539 5536 5533 5530
5434 5439 5446 5452 5459 5465 5470 5476 5482 5489 5493 5497 5498 5502 5507 5511 5515 5517 5519 5522 5523 5525 5528 5531 5532 5532 5534 5535 5535 5535 5535 5536 5536 5535 5535 5535 5535 5534 5532 5529 5527 5524 5520 5516
5442 5450 5454 5460 5465 5469 5474 5479 5483 5487 5491 5495 5499 5502 5506 5509 5511 5513 5516 5518 5519 5522 5523 5525 5525 5525 5525 5526 5526 5526 5526 5526 5526 5526 5526 5524 5522 5521 5519 5517 5514 5510 5505 5500
5451 5455 5460 5465 5469 5473 5476 5480 5484 5488 5492 5494 5497 5500 5502 5505 5505 5507 5510 5513 5514 5515 5516 5517 5517 5517 5516 5516 5516 5516 5516 5516 5515 5515 5514 5513 5511 5509 5506 5503 5499 5494 5489 5484
Wind_Speed
51 45 56 88 93 92 89 84 79 70 67 72 67 59 55 52 48 48 50 48 44 42 39 38 36 32 27 24 18 14 16 22 30 30 30 31 31 30 30 28 25 23 23 14
51 49 44 64 92 96 92 89 82 78 75 76 64 58 55 54 51 51 50 50 48 46 43 42 38 30 25 26 19 17 17 20 21 26 31 32 34 29 29 27 23 22 24 15
55 52 46 50 70 96 95 93 91 85 82 70 66 62 56 56 51 55 53 50 51 47 45 44 38 31 30 25 22 20 20 22 16 18 15 19 27 29 28 26 24 21 18 20
58 54 51 45 54 81 97 99 97 88 87 77 66 63 59 57 52 55 53 50 52 49 46 43 38 32 30 26 24 25 24 21 19 21 23 25 26 24 31 32 29 24 20 22
58 56 52 45 48 59 90 100 96 91 82 70 73 69 62 59 53 56 56 54 51 52 47 41 36 33 31 28 27 27 26 23 21 23 26 28 31 27 32 31 30 26 25 25
59 58 54 49 46 54 78 100 96 91 84 81 78 66 58 57 53 53 54 50 45 50 46 39 39 35 36 34 32 29 30 26 22 25 25 31 31 18 25 29 28 27 28 27
59 59 56 51 41 40 59 90 94 92 89 83 72 67 61 58 51 50 49 47 46 50 42 44 42 37 38 37 32 30 28 27 26 28 26 32 18 20 23 27 29 30 31 32
60 59 57 49 43 43 44 71 97 94 91 83 76 71 63 61 53 49 51 47 44 48 46 45 44 42 42 43 38 33 28 28 32 31 27 27 24 20 25 29 28 30 29 28
57 57 57 51 49 44 38 58 87 93 91 85 77 73 68 62 54 53 49 53 46 42 53 52 51 48 47 45 43 35 32 31 33 32 34 31 23 24 28 30 29 26 25 28
53 54 55 52 44 42 40 58 79 91 90 85 80 75 68 64 54 52 47 49 54 48 49 54 55 52 48 46 44 38 35 33 33 32 34 32 27 28 27 31 30 29 29 30
48 50 51 47 40 40 39 56 81 91 90 86 82 78 71 66 55 50 50 50 57 55 54 54 53 53 50 46 44 42 39 32 32 30 32 31 25 26 28 30 32 32 32 31
47 48 43 37 29 34 41 67 77 90 88 86 80 75 70 63 56 49 48 50 53 54 52 53 52 50 46 43 41 40 39 33 32 30 29 29 28 25 26 29 31 30 30 30
47 42 36 31 31 31 45 67 72 87 85 82 78 74 69 64 55 52 49 53 54 56 51 49 48 48 45 44 36 38 36 33 34 33 32 32 28 29 30 31 30 29 31 27
41 36 32 28 26 31 61 72 76 84 83 79 77 66 63 57 51 53 50 47 48 53 52 49 47 43 43 42 41 41 36 33 31 36 35 33 29 30 36 33 29 27 29 27
33 31 26 25 29 52 73 70 76 81 81 75 65 64 47 50 49 46 52 48 46 44 46 46 42 42 44 44 44 38 35 30 31 28 32 31 34 38 35 31 29 29 29 31
27 26 25 25 35 75 69 69 72 79 79 66 62 55 51 38 33 48 46 49 50 48 43 40 44 40 40 40 41 37 36 33 31 32 31 30 33 34 33 32 31 31 31 32
27 25 21 30 63 61 62 71 66 77 76 74 70 61 53 35 29 34 48 46 48 49 42 44 39 39 42 39 36 33 29 29 30 31 30 32 32 31 35 36 36 38 38 38
25 25 50 65 57 55 60 60 48 61 71 69 64 57 46 34 37 32 37 46 43 40 41 39 41 39 41 34 36 32 30 29 33 35 34 32 34 40 42 43 44 42 42 44
34 67 59 45 41 48 56 65 48 49 56 62 58 51 44 35 32 30 28 33 43 41 38 36 39 38 39 32 26 30 36 36 35 40 36 36 39 43 42 40 42 44 46 46
59 57 65 43 42 49 61 64 59 50 52 48 44 43 42 37 37 21 31 30 35 42 39 32 35 36 33 34 35 34 38 50 47 46 45 40 37 41 44 48 47 47 49 48
52 55 49 49 50 56 62 63 64 62 51 42 38 42 33 28 28 33 25 28 26 33 31 38 38 35 33 34 42 37 31 38 43 39 36 33 40 44 47 47 46 46 42 41
50 49 41 38 45 50 55 56 55 47 37 35 35 31 28 33 23 15 22 30 38 36 32 30 29 35 31 33 32 35 30 29 30 31 31 37 41 45 49 46 41 40 43 50
40 42 48 47 48 45 47 44 34 33 36 38 39 30 24 28 22 17 19 20 28 27 34 38 30 27 25 27 31 30 29 32 35 35 36 35 34 34 35 44 42 47 55 55
45 32 34 35 36 35 33 29 28 25 26 38 39 29 21 24 19 20 24 20 25 30 34 33 29 26 29 28 27 28 29 31 32 33 34 31 37 39 39 42 53 53 48 46
32 31 28 30 31 24 24 27 24 21 23 14 19 19 15 19 22 21 19 21 23 22 19 19 21 22 22 22 23 25 26 25 27 27 29 34 40 45 47 45 42 45 48 52
30 29 23 23 22 18 20 27 18 13 15 16 16 17 17 20 19 20 20 18 18 17 20 20 18 18 19 22 23 24 26 29 30 33 39 37 36 36 39 43 47 50 52 52
22 16 18 20 22 20 21 19 16 14 12 11 10 9 11 12 16 20 22 17 18 18 19 21 24 22 22 23 24 24 25 28 28 29 32 37 40 43 46 49 50 51 53 55
Wind_Direction
236 239 232 218 215 219 219 219 220 216 214 217 226 223 225 218 217 222 221 221 227 233 238 240 243 245 244 247 255 263 267 250 245 246 242 249 254 254 257 262 280 268 271 263
230 231 231 227 214 214 217 218 217 216 213 215 221 221 222 219 214 219 221 221 225 228 234 237 241 241 235 240 246 261 267 271 264 250 249 251 253 254 262 264 256 256 270 280
223 224 224 230 223 210 213 215 214 213 215 217 218 221 218 219 217 218 216 218 224 228 232 236 237 236 229 233 242 250 258 271 274 267 252 246 251 253 257 255 257 267 268 282
219 217 220 227 226 217 209 212 214 215 214 214 217 217 216 218 215 216 216 215 222 227 231 234 234 229 229 229 236 245 253 268 271 268 256 255 254 257 258 256 262 260 270 273
215 216 214 218 221 217 213 212 211 213 213 214 218 215 214 211 211 214 219 218 219 226 229 232 230 225 219 222 230 240 250 257 262 268 265 259 258 256 259 253 254 263 271 273
213 215 215 216 215 221 215 211 209 211 211 209 214 215 214 215 214 213 217 217 218 227 229 230 230 225 228 227 230 228 243 251 253 264 264 261 264 261 256 264 270 275 276 284
208 213 213 209 216 226 224 216 209 209 210 210 210 213 214 214 215 218 214 216 216 226 221 224 232 231 229 229 228 236 242 247 250 257 261 259 268 258 260 268 273 277 282 285
207 208 207 206 214 220 221 211 210 207 210 208 208 210 208 213 212 216 213 212 214 218 213 228 229 230 232 232 232 230 237 246 251 256 265 267 259 261 269 270 270 278 285 287
201 201 202 207 214 219 220 209 210 207 207 206 206 209 211 209 208 211 211 209 215 218 215 218 229 227 232 232 237 235 236 241 250 260 263 266 266 264 269 271 275 292 282 280
194 196 202 207 215 220 221 210 203 206 208 205 204 207 208 211 208 210 207 207 216 219 221 220 224 228 229 235 241 244 240 244 252 261 267 266 267 268 271 275 288 281 276 277
190 197 201 209 219 218 220 206 197 200 206 204 204 206 207 209 205 208 207 209 210 217 221 224 226 228 229 234 241 246 246 246 253 258 259 264 272 266 271 279 283 285 281 276
188 193 199 206 217 214 212 196 195 197 201 204 205 207 206 209 206 210 211 213 214 223 222 226 227 227 231 238 243 247 249 253 257 258 264 262 258 262 272 278 283 285 281 273
187 193 202 207 207 217 206 181 193 193 199 204 205 209 212 209 205 204 207 212 216 220 224 226 230 233 234 240 246 250 249 254 255 257 270 260 262 265 274 277 279 284 285 281
191 197 204 208 213 213 189 182 194 190 198 202 206 207 213 213 207 204 206 211 218 220 226 228 230 231 233 237 241 247 245 252 258 262 262 260 261 264 264 269 276 279 278 277
191 201 205 214 218 188 175 179 188 187 197 204 206 208 212 217 212 207 209 212 216 221 225 228 227 231 235 232 236 239 242 257 264 285 250 253 260 256 266 271 275 275 276 279
198 203 208 213 193 170 176 181 184 189 194 196 202 201 202 201 201 206 208 212 216 222 226 229 231 230 237 234 236 237 243 250 267 271 272 261 248 259 265 268 271 274 276 277
196 195 207 182 157 162 170 179 180 191 195 200 206 201 198 202 198 201 210 214 219 222 228 229 225 230 236 235 234 238 244 251 261 260 255 255 253 256 260 266 271 273 275 277
191 191 156 151 156 168 183 171 179 194 200 202 206 202 197 199 203 207 212 217 220 222 226 232 232 234 235 235 237 237 254 253 256 253 252 253 262 266 268 269 273 272 273 276
149 144 149 147 166 183 175 167 171 188 198 201 202 201 197 198 197 205 219 220 221 223 228 228 234 230 229 245 249 255 258 260 262 250 253 260 261 257 271 273 272 274 276 278
146 163 156 162 173 177 172 180 181 187 202 196 196 191 199 185 191 196 215 224 217 218 221 232 231 228 234 249 252 261 267 257 261 256 253 260 254 267 266 272 271 273 277 278
150 156 161 182 180 172 175 181 189 197 195 187 188 191 188 196 206 224 187 218 220 219 229 235 231 230 246 251 249 252 272 260 250 245 244 260 262 266 272 266 268 279 272 279
155 159 139 146 165 172 181 188 193 190 182 177 183 192 193 206 209 213 225 229 228 228 240 231 230 240 256 258 257 250 253 250 255 253 260 264 271 270 272 285 279 266 278 289
128 141 149 156 169 175 181 185 179 176 177 178 181 180 184 194 203 212 226 222 222 233 241 241 243 256 260 258 260 265 268 268 270 269 270 275 280 271 271 264 266 282 286 287
116 129 153 161 167 171 169 175 181 189 197 190 196 219 224 209 208 228 240 241 250 259 257 259 264 263 260 258 259 263 267 266 267 270 271 270 269 267 266 273 277 281 284 286
122 129 143 157 156 148 168 170 176 170 184 179 196 190 183 189 201 209 233 249 251 248 242 239 241 242 247 252 257 263 265 268 266 270 275 278 273 271 273 277 280 282 284 288
93 112 137 150 163 172 164 176 164 153 160 159 166 179 196 203 218 231 239 252 245 235 242 249 257 263 260 260 261 261 263 268 272 272 268 273 274 277 277 279 282 285 287 288
98 94 105 112 132 145 143 140 147 153 160 171 181 200 216 226 239 244 238 247 246 253 253 260 268 269 269 271 274 274 271 270 271 274 279 279 277 278 282 284 286 287 288 289